FW0624 Weather Reports


Display with metric or nautical units.
time (UTC)temp
F
wind
direction
speed
MPH
gust
MPH
rain 1hr
in
rain 24hr
in
rain mn
in
humidity
%
barometer
mb
20260510114535 55 13 6.0 15.0 0.00 0.00 0.00
20260510113535 55 20 6.0 13.0 0.00 0.00 0.00
20260510112516 54 10 7.0 16.0 0.00 0.00 0.00
20260510111515 53 10 7.0 18.0 0.00 0.00 0.00
20260510110555 53 13 7.0 21.0 0.00 0.00 0.00
20260510105515 54 13 5.0 13.0 0.00 0.00 0.00
20260510104515 53 13 6.0 15.0 0.00 0.00 0.00
20260510103535 53 3 6.0 17.0 0.00 0.00 0.00
20260510102535 53 8 7.0 15.0 0.00 0.00 0.00
20260510101535 54 11 5.0 14.0 0.00 0.00 0.00
20260510100524 54 25 6.0 16.0 0.00 0.00 0.00
20260510095515 53 8 6.0 13.0 0.00 0.00 0.00
20260510094535 53 12 7.0 16.0 0.00 0.00 0.00
20260510093515 54 8 4.0 14.0 0.00 0.00 0.00
20260510092535 54 9 7.0 16.0 0.00 0.00 0.00
20260510091555 53 18 5.0 14.0 0.00 0.00 0.00
20260510090535 53 11 5.0 12.0 0.00 0.00 0.00
20260510085615 53 6 6.0 14.0 0.00 0.00 0.00
20260510084615 53 18 5.0 13.0 0.00 0.00 0.00
20260510083515 53 9 7.0 15.0 0.00 0.00 0.00
20260510082555 54 18 5.0 12.0 0.00 0.00 0.00
20260510081515 54 8 6.0 14.0 0.00 0.00 0.00
20260510080555 55 12 6.0 13.0 0.00 0.00 0.00
20260510075535 54 21 6.0 14.0 0.00 0.00 0.00
20260510074517 54 25 6.0 16.0 0.00 0.00 0.00
20260510073515 53 18 7.0 19.0 0.00 0.00 0.00
20260510072515 53 17 5.0 13.0 0.00 0.00 0.00
20260510071515 52 13 6.0 14.0 0.00 0.00 0.00
20260510070515 52 18 4.0 11.0 0.00 0.00 0.00
20260510065555 52 11 6.0 13.0 0.00 0.00 0.00
20260510064515 51 16 3.0 9.0 0.00 0.00 0.00
20260510063535 51 15 4.0 11.0 0.00 0.00 0.00
20260510062535 51 14 5.0 13.0 0.00 0.00 0.00
20260510061516 51 12 6.0 14.0 0.00 0.00 0.00
20260510060515 51 10 6.0 13.0 0.00 0.00 0.00
20260510055515 50 8 3.0 9.0 0.00 0.00 0.00
20260510054515 49 10 3.0 10.0 0.00 0.00 0.00
20260510053615 49 14 4.0 10.0 0.00 0.00 0.00
20260510052535 49 13 4.0 9.0 0.00 0.00 0.00
20260510051515 49 10 5.0 9.0 0.00 0.00 0.00
20260510050535 49 9 5.0 11.0 0.00 0.00 0.00
20260510045615 48 9 4.0 11.0 0.00 0.00 0.00
20260510044535 48 9 6.0 11.0 0.00 0.00 0.00
20260510043536 48 8 5.0 9.0 0.00 0.00 0.00
20260510042535 48 9 3.0 8.0 0.00 0.00 0.00
20260510041515 48 7 3.0 8.0 0.00 0.00 0.00
20260510040615 48 12 3.0 9.0 0.00 0.00 0.00
20260510035535 48 9 3.0 9.0 0.00 0.00 0.00
20260510034515 48 11 4.0 12.0 0.00 0.00 0.00
20260510033635 48 9 3.0 11.0 0.00 0.00 0.00
20260510032535 48 6 6.0 13.0 0.00 0.00 0.00
20260510030535 48 6 5.0 11.0 0.00 0.00 0.00
20260510025515 48 7 5.0 11.0 0.00 0.00 0.00
20260510024516 48 7 4.0 9.0 0.00 0.00 0.00
20260510022515 48 9 4.0 9.0 0.00 0.00 0.00
20260510021535 49 7 4.0 10.0 0.00 0.00 0.00
20260510020535 49 10 4.0 8.0 0.00 0.00 0.00
20260510015535 49 10 4.0 10.0 0.00 0.00 0.00
20260510014516 49 9 4.0 10.0 0.00 0.00 0.00
20260510013515 49 9 4.0 11.0 0.00 0.00 0.00
20260510012615 49 6 4.0 11.0 0.00 0.00 0.00
20260510011535 49 4 3.0 8.0 0.00 0.00 0.00
20260510010515 49 5 3.0 7.0 0.00 0.00 0.00
20260510005515 49 6 2.0 7.0 0.00 0.00 0.00
20260510004615 49 4 2.0 7.0 0.00 0.00 0.00
20260510003515 49 3 3.0 7.0 0.00 0.00 0.00
20260510002635 49 4 3.0 7.0 0.00 0.00 0.00
20260510001515 49 7 4.0 8.0 0.00 0.00 0.00
20260510000555 50 7 3.0 8.0 0.00 0.00 0.00
20260509235515 50 7 3.0 8.0 0.00 0.00 0.00
20260509234515 49 3 2.0 5.0 0.00 0.00 0.00
20260509233615 49 4 3.0 9.0 0.00 0.00 0.00
20260509232555 49 9 3.0 6.0 0.00 0.00 0.00
20260509231535 49 9 3.0 9.0 0.00 0.00 0.00
20260509230636 49 8 4.0 11.0 0.00 0.00 0.00
20260509225635 49 6 3.0 8.0 0.00 0.00 0.00
20260509224535 49 360 1.0 4.0 0.00 0.00 0.00
20260509223535 50 2 2.0 6.0 0.00 0.00 0.00
20260509222535 50 359 1.0 5.0 0.00 0.00 0.00
20260509221535 51 8 2.0 8.0 0.00 0.00 0.00
20260509220515 51 17 1.0 5.0 0.00 0.00 0.00
20260509215555 51 7 0.0 3.0 0.00 0.00 0.00
20260509214515 52 8 2.0 6.0 0.00 0.00 0.00
20260509213535 52 10 3.0 7.0 0.00 0.00 0.00
20260509212535 52 19 2.0 6.0 0.00 0.00 0.00
20260509211555 53 17 3.0 7.0 0.00 0.00 0.00
20260509210655 53 18 2.0 7.0 0.00 0.00 0.00
20260509205515 53 13 2.0 7.0 0.00 0.00 0.00
20260509204535 53 27 2.0 6.0 0.00 0.00 0.00
20260509203515 53 21 2.0 6.0 0.00 0.00 0.00
20260509202535 54 358 0.0 4.0 0.00 0.00 0.00
20260509201516 55 21 1.0 6.0 0.00 0.00 0.00
20260509200515 55 24 2.0 7.0 0.00 0.00 0.00
20260509195555 56 16 2.0 6.0 0.00 0.00 0.00
20260509194515 57 34 2.0 6.0 0.00 0.00 0.00
20260509193515 57 37 1.0 6.0 0.00 0.00 0.00
20260509192515 58 18 0.0 4.0 0.00 0.00 0.00
20260509191555 58 40 1.0 5.0 0.00 0.00 0.00
20260509190515 59 36 1.0 5.0 0.00 0.00 0.00
20260509185517 60 43 1.0 5.0 0.00 0.00 0.00
20260509184555 61 21 4.0 8.0 0.00 0.00 0.00
20260509183555 62 19 2.0 6.0 0.00 0.00 0.00
20260509182515 63 41 2.0 8.0 0.00 0.00 0.00
20260509181515 66 32 2.0 8.0 0.00 0.00 0.00
20260509180535 66 17 4.0 10.0 0.00 0.00 0.00
20260509175515 68 34 3.0 10.0 0.00 0.00 0.00
20260509174515 69 37 3.0 8.0 0.00 0.00 0.00
20260509173535 69 38 3.0 10.0 0.00 0.00 0.00
20260509172535 71 35 2.0 6.0 0.00 0.00 0.00
20260509171515 71 44 2.0 7.0 0.00 0.00 0.00
20260509170515 71 45 2.0 9.0 0.00 0.00 0.00
20260509165515 71 37 2.0 6.0 0.00 0.00 0.00
20260509164555 71 30 1.0 8.0 0.00 0.00 0.00
20260509162515 72 42 2.0 8.0 0.00 0.00 0.00
20260509161615 71 37 1.0 9.0 0.00 0.00 0.00
20260509160535 72 46 3.0 11.0 0.00 0.00 0.00
20260509155555 72 19 3.0 12.0 0.00 0.00 0.00
20260509154515 72 52 1.0 6.0 0.00 0.00 0.00
20260509153515 73 50 3.0 11.0 0.00 0.00 0.00
20260509152655 72 42 2.0 8.0 0.00 0.00 0.00
20260509151535 72 30 3.0 9.0 0.00 0.00 0.00
20260509150535 71 36 3.0 8.0 0.00 0.00 0.00
20260509144517 69 32 3.0 10.0 0.00 0.00 0.00
20260509143515 70 36 3.0 9.0 0.00 0.00 0.00
20260509142515 70 47 3.0 11.0 0.00 0.00 0.00
20260509141615 71 30 4.0 11.0 0.00 0.00 0.00
20260509140535 70 43 2.0 7.0 0.00 0.00 0.00
20260509135515 71 41 2.0 11.0 0.00 0.00 0.00
20260509134515 71 38 2.0 7.0 0.00 0.00 0.00
20260509133615 71 44 2.0 9.0 0.00 0.00 0.00
20260509132515 71 28 2.0 8.0 0.00 0.00 0.00
20260509131635 70 38 2.0 9.0 0.00 0.00 0.00
20260509130535 70 50 3.0 12.0 0.00 0.00 0.00
20260509125515 69 68 3.0 11.0 0.00 0.00 0.00
20260509124515 69 67 2.0 7.0 0.00 0.00 0.00
20260509123515 70 105 2.0 8.0 0.00 0.00 0.00
20260509122515 70 74 2.0 11.0 0.00 0.00 0.00
20260509120515 70 106 2.0 10.0 0.00 0.00 0.00
20260509115515 70 64 2.0 6.0 0.00 0.00 0.00